Showing default

FLOCK 4G 11, 62629

Orbit data source: Space-Track

FLOCK 4G 11, 62629 is a payload satellite owned by Planet (US) in SSO that was launched on Tue, 14 Jan 2025 UTC via an FALCON 9 launch vehicle from the Air Force Western Test Range (AFWTR). Payload-class satellites include a variety of spacecraft equipped with specific instruments for various scientific and technological missions. These include communications satellites like Starlink; space stations such as the ISS; scientific satellites like the Hubble; Earth observation satellites from companies like Planet Labs, Umbra, and HawkEye 360; GPS; miniature CubeSats for education and research; and military/defense satellites.

Loading next visibility...
Identifier
62629, 2025-009W
Orbit
SSO
Country
Flag of USUS
Related business
Manufacturer
Planet
Mission
Operational Commercial Imaging
Bus & Motor
CUBESAT 3U, Unknown motor
Mass
5.7 kg wet, 5.7 kg dry
Launch date (UTC)
2025-01-14 (1 year ago)
Launch vehicle
FALCON 9
Launch site
Air Force Western Test Range (AFWTR)
Object type
Payload
Rocket body
Debris
Shape & HBR
Box + 2 Pan, 1.0 m
Radar Cross Section
0.072 m², Medium (>0.1 m² and < 1m²)

Expand to show TLE details & history
Last TLE update: 7 hours ago

TLE from 7 hours ago
0 FLOCK 4G 11
1 62629U 25009W   26126.22028064  .00010399  00000-0  37733-3 0  9990
2 62629  97.3922 207.9279 0004387 110.0601 250.1111 15.28506803 72509
Epoch: 2026-05-06T05:17Z
TLE epoch observation values (Epoch: 2026-05-06T05:17:12.247Z)
Latitude
-0.00004°
Longitude
-95.45702°
Altitude
484.403 km
Speed
7.623 km/s
True Right ascension
13h 51m 42s
True Declination
0° 00' 00"
Sunlit
Object was in full shadow at epoch
Visualization orbit readout
Latitude
Unknown
Longitude
Unknown
Altitude
Unknown
Speed
Unknown
Apparent Right ascension
Unknown
Apparent Declination
Unknown
Sunlit
N/A
Visualization observer readout
Local Sidereal Time
20:29:00
Azimuth
Unknown
Elevation
Unknown
Doppler factor
Unknown
Orbital elements
Apogee altitude
480.237 km
Perigee altitude
474.222 km
Semi-major axis
6,855.366 km
Eccentricity
0.00044
Inclination
97.3922°
RAAN
207.9279°
Arg. of periapsis
110.0601°
True anomaly
250.06384°
Mean anomaly
250.1111°
Eccentric anomaly
250.08747°
Mean motion
3.82382 °/min
Orbital period
94.15 mins
BSTAR
0.00037733
Loading maneuver chart data...
Computing Atmospheric mass density...
Loading historical data...
Loading historical data...
Loading historical data...
Loading historical data...
Loading historical data...
Loading historical data...
Loading historical data...

Documentation

Showing up to 5 results
|